Flag for India Weather past 2 weeks in Maraimalai Nagar, Tamil Nadu, India

Now
75 °F

Passing clouds.


Feels Like: 76 °F
Forecast: 68 / 85 °F
Wind: 5 mph from Northeast

Location: Madras / Minambakkam

Current Time: Jan 27, 2015 at 12:11:40 AM

Latest Report: Jan 26, 2015 at 9:40 PM


Visibility: 4 mi

Pressure: 30.01 "Hg

Humidity: 78%

Dew point: 68 °F

Location of Maraimalai NagarLocation

Historic Weather in Maraimalai Nagar — Graph

°F

Maraimalai Nagar temperature yesterday

Maximum temperature yesterday: 86 °F (at 10:40 AM)
Minimum temperature yesterday: 70 °F (at 5:40 AM)
Average temperature yesterday: 77 °F

Past Weeks' High & Low Weather Summary

 TemperatureHumidityPressure
High86 °F (Jan 23, 2:40 PM)100% (Jan 16, 4:40 AM)30.09 "Hg (Jan 16, 4:40 AM)
Low66 °F (Jan 13, 5:40 AM)40% (Jan 21, 2:40 PM)29.86 "Hg (Jan 13, 1:40 PM)
Average76 °F75%29.96 "Hg
* Reported Jan 11 9:40 PM — Jan 26 9:40 PM, Maraimalai Nagar, Weather by CustomWeather, © 2014

Note: Actual official high and low records may vary slightly from our data, if they occured in-between our weather recording intervals... More about our weather records

Advertising

Maraimalai Nagar weather history for previous 24 hours

 ConditionsComfort  
Time TempWeatherWind HumidityBarometerVisibility
9:40 PM
Jan 26
75 °FPassing clouds.5 mph78%30.01 "Hg4 mi
8:40 PM75 °FPassing clouds.3 mph83%29.98 "Hg4 mi
7:40 PM77 °FPassing clouds.5 mph74%29.98 "Hg4 mi
6:40 PM77 °FPassing clouds.7 mph74%29.95 "Hg4 mi
5:40 PM79 °FScattered clouds.7 mph65%29.92 "Hg4 mi
4:40 PM82 °FScattered clouds.12 mph58%29.92 "Hg4 mi
3:40 PM84 °FScattered clouds.14 mph58%29.92 "Hg4 mi
2:40 PM84 °FScattered clouds.10 mph55%29.92 "Hg4 mi
1:40 PM84 °FScattered clouds.10 mph58%29.95 "Hg5 mi
12:40 PM82 °FScattered clouds.12 mph62%29.98 "Hg5 mi
11:40 AM84 °FScattered clouds.14 mph55%30.01 "Hg4 mi
10:40 AM86 °FScattered clouds.12 mph52%30.04 "Hg4 mi
7:40 AM73 °FFog.No wind89%30.01 "Hg1 mi
6:40 AM70 °FFog.No wind94%29.98 "Hg2 mi
5:40 AM70 °FFog.No wind94%29.98 "Hg2 mi
4:40 AM72 °FFog.No wind88%29.95 "Hg2 mi
3:40 AM72 °FFog.No wind88%29.95 "Hg3 mi
2:40 AM72 °FPassing clouds.No wind88%29.95 "Hg4 mi
1:40 AM73 °FPassing clouds.3 mph83%29.98 "Hg4 mi
12:40 AM75 °FPassing clouds.5 mph78%30.01 "Hg4 mi
Weather by CustomWeather, © 2014

See weather overviewHow to use our weather pages